IFT-1 old Cat # 39577 has been dropped.
CO-77 (INVADER) is now Cat # 39577. CO-77 ARTSAT1 INVADER has been recovered and the plan is to setup the digitalker. NOTE: The CO-77 team predicts about one more month before re-entry. See http://www.amsat.org/?page_id=443
A new Dnepr launch has put a "cloud" of 37 individual satellites in orbit. The launch was Thursday 6-19-2014 at 19:11:11 UTC. Since the individual satellites cannot be identified for now, we will wait for identifications to be made. See http://www.amsat.org/ for more info and a list of satellites.
Per the above ANSAT-NA URL preliminary KEPs for the "cloud" is as follows:
UNISAT-6 1 00000U 00000 14169.02083330 .00000831 00000-0 10000-3 0 00009 2 00000 097.9760 063.7300 0060000 225.6000 206.7270 14.69750000000